SHT87M EGPH-EGCC

Flight info

Callsign SHT87M
Flight time 0h 36m
Altitude 24000
Route GOSAM P600 FENIK/N0409F250 L612 LAKEY
Aircraft B738/M-SDE2E3FGHIRWXY/LB1

Departure

Time 2026-04-26 17:40
Airport Edinburgh Airport (EGPH)

Arrival

Time 2026-04-26 18:17
Airport Manchester Airport (EGCC)
Time Latitude Longitude Altitude Speed Heading
2026-04-26 17:19 55.94840 -3.35803 143 ft 0 kts 208°
2026-04-26 17:29 55.94847 -3.35796 143 ft 2 kts 208°
2026-04-26 17:29 55.94861 -3.35784 143 ft 2 kts 208°
2026-04-26 17:30 55.94874 -3.35771 143 ft 2 kts 208°
2026-04-26 17:30 55.94887 -3.35758 143 ft 2 kts 207°
2026-04-26 17:30 55.94895 -3.35741 143 ft 2 kts 269°
2026-04-26 17:30 55.94894 -3.35726 143 ft 0 kts 302°
2026-04-26 17:31 55.94890 -3.35717 143 ft 0 kts 299°
2026-04-26 17:34 55.94899 -3.35747 143 ft 4 kts 299°
2026-04-26 17:34 55.94925 -3.35828 142 ft 9 kts 306°
2026-04-26 17:34 55.95003 -3.35848 142 ft 13 kts 18°
2026-04-26 17:34 55.95076 -3.35913 142 ft 13 kts 301°
2026-04-26 17:35 55.95109 -3.36065 142 ft 12 kts 288°
2026-04-26 17:35 55.95134 -3.36216 143 ft 12 kts 282°
2026-04-26 17:35 55.95108 -3.36359 142 ft 12 kts 240°
2026-04-26 17:35 55.95063 -3.36487 142 ft 12 kts 237°
2026-04-26 17:36 55.95013 -3.36626 143 ft 14 kts 239°
2026-04-26 17:36 55.94953 -3.36803 143 ft 18 kts 239°
2026-04-26 17:36 55.94882 -3.37016 142 ft 21 kts 240°
2026-04-26 17:36 55.94802 -3.37262 143 ft 24 kts 240°
2026-04-26 17:37 55.94706 -3.37542 142 ft 27 kts 238°
2026-04-26 17:37 55.94612 -3.37823 143 ft 26 kts 240°
2026-04-26 17:37 55.94517 -3.38099 143 ft 25 kts 238°
2026-04-26 17:38 55.94345 -3.38605 143 ft 17 kts 238°
2026-04-26 17:38 55.94282 -3.38791 143 ft 16 kts 253°
2026-04-26 17:38 55.94347 -3.38932 143 ft 15 kts 333°
2026-04-26 17:38 55.94436 -3.38907 143 ft 14 kts 50°
2026-04-26 17:39 55.94459 -3.38840 143 ft 0 kts 62°
2026-04-26 17:40 55.94538 -3.38599 143 ft 64 kts 58°
2026-04-26 17:40 55.94757 -3.37958 143 ft 120 kts 59°
2026-04-26 17:40 55.95496 -3.35767 669 ft 169 kts 58°
2026-04-26 17:40 55.96163 -3.33895 1365 ft 191 kts 51°
2026-04-26 17:41 55.97117 -3.32176 2126 ft 202 kts 40°
2026-04-26 17:41 55.98228 -3.30472 2706 ft 219 kts 40°
2026-04-26 17:41 55.99398 -3.28644 3293 ft 234 kts 40°
2026-04-26 17:41 56.00822 -3.27124 3928 ft 245 kts 15°
2026-04-26 17:42 56.02505 -3.26862 4704 ft 247 kts 351°
2026-04-26 17:42 56.04143 -3.27620 5518 ft 248 kts 336°
2026-04-26 17:42 56.05606 -3.29163 6283 ft 246 kts 315°
2026-04-26 17:42 56.06575 -3.31616 7045 ft 245 kts 291°
2026-04-26 17:43 56.07017 -3.34520 7835 ft 244 kts 276°
2026-04-26 17:43 56.06972 -3.37529 8614 ft 244 kts 256°
2026-04-26 17:43 56.06298 -3.40258 9395 ft 246 kts 236°
2026-04-26 17:43 56.05205 -3.42574 10181 ft 249 kts 230°
2026-04-26 17:44 56.03934 -3.44694 10949 ft 254 kts 218°
2026-04-26 17:44 56.02422 -3.46415 11607 ft 263 kts 213°
2026-04-26 17:44 56.00803 -3.48119 12079 ft 279 kts 214°
2026-04-26 17:44 55.99118 -3.49990 12549 ft 293 kts 216°
2026-04-26 17:45 55.97391 -3.52001 12988 ft 308 kts 216°
2026-04-26 17:45 55.95566 -3.54159 13413 ft 324 kts 216°
2026-04-26 17:45 55.93642 -3.56436 13889 ft 337 kts 216°
2026-04-26 17:45 55.91615 -3.58496 14570 ft 346 kts 205°
2026-04-26 17:46 55.89271 -3.59682 15335 ft 353 kts 195°
2026-04-26 17:46 55.86829 -3.60452 15709 ft 369 kts 193°
2026-04-26 17:46 55.84246 -3.61138 16047 ft 384 kts 192°
2026-04-26 17:46 55.81575 -3.61867 16574 ft 394 kts 193°
2026-04-26 17:47 55.78854 -3.62670 17212 ft 399 kts 193°
2026-04-26 17:47 55.77028 -3.63240 17682 ft 401 kts 194°
2026-04-26 17:47 55.73342 -3.64443 18621 ft 406 kts 194°
2026-04-26 17:47 55.70593 -3.65364 19253 ft 411 kts 194°
2026-04-26 17:48 55.67772 -3.66316 19915 ft 414 kts 194°
2026-04-26 17:48 55.64921 -3.67277 20529 ft 419 kts 194°
2026-04-26 17:48 55.62062 -3.68236 21150 ft 423 kts 194°
2026-04-26 17:48 55.59184 -3.69198 21795 ft 425 kts 194°
2026-04-26 17:49 55.56260 -3.69870 22320 ft 434 kts 186°
2026-04-26 17:49 55.53215 -3.69699 22956 ft 441 kts 177°
2026-04-26 17:49 55.50166 -3.68752 23209 ft 450 kts 170°
2026-04-26 17:49 55.47172 -3.67366 23214 ft 449 kts 167°
2026-04-26 17:50 55.44176 -3.65782 23218 ft 448 kts 166°
2026-04-26 17:50 55.41205 -3.64180 23217 ft 450 kts 166°
2026-04-26 17:50 55.38244 -3.62627 23218 ft 449 kts 167°
2026-04-26 17:50 55.35249 -3.61125 23220 ft 449 kts 167°
2026-04-26 17:51 55.32244 -3.59687 23220 ft 449 kts 168°
2026-04-26 17:51 55.29254 -3.58309 23217 ft 438 kts 168°
2026-04-26 17:51 55.26374 -3.57013 23222 ft 422 kts 169°
2026-04-26 17:51 55.23539 -3.55765 23226 ft 420 kts 169°
2026-04-26 17:52 55.20705 -3.54541 23226 ft 423 kts 169°
2026-04-26 17:52 55.17838 -3.53316 23229 ft 423 kts 169°
2026-04-26 17:52 55.14998 -3.52106 23232 ft 423 kts 169°
2026-04-26 17:52 55.12166 -3.50902 23235 ft 422 kts 169°
2026-04-26 17:53 55.09307 -3.49689 23239 ft 423 kts 169°
2026-04-26 17:53 55.06453 -3.48479 23239 ft 423 kts 169°
2026-04-26 17:53 55.03625 -3.47282 23242 ft 423 kts 169°
2026-04-26 17:54 54.97887 -3.44856 23248 ft 423 kts 169°
2026-04-26 17:54 54.95063 -3.43663 23247 ft 423 kts 169°
2026-04-26 17:54 54.92186 -3.42450 23252 ft 424 kts 169°
2026-04-26 17:54 54.89308 -3.41239 23246 ft 425 kts 169°
2026-04-26 17:55 54.86442 -3.40033 23257 ft 424 kts 169°
2026-04-26 17:55 54.83606 -3.38840 23252 ft 424 kts 169°
2026-04-26 17:55 54.80742 -3.37638 23248 ft 423 kts 169°
2026-04-26 17:55 54.77877 -3.36436 23253 ft 422 kts 169°
2026-04-26 17:56 54.75046 -3.35245 23249 ft 423 kts 168°
2026-04-26 17:56 54.69467 -3.32121 23254 ft 425 kts 162°
2026-04-26 17:57 54.64041 -3.28166 23241 ft 425 kts 159°
2026-04-26 17:57 54.61338 -3.26098 23245 ft 425 kts 159°
2026-04-26 17:57 54.58636 -3.24022 23248 ft 426 kts 159°
2026-04-26 17:57 54.55954 -3.21972 23242 ft 426 kts 159°
2026-04-26 17:58 54.47838 -3.15844 23239 ft 426 kts 159°
2026-04-26 17:59 54.42526 -3.11874 23241 ft 405 kts 160°
2026-04-26 17:59 54.39955 -3.09959 23246 ft 401 kts 160°
2026-04-26 17:59 54.37389 -3.08059 23244 ft 404 kts 160°
2026-04-26 17:59 54.34836 -3.06175 23213 ft 402 kts 160°
2026-04-26 18:00 54.32291 -3.04297 22929 ft 396 kts 160°
2026-04-26 18:00 54.29762 -3.02433 22291 ft 396 kts 159°
2026-04-26 18:00 54.27275 -3.00603 21767 ft 393 kts 159°
2026-04-26 18:00 54.24783 -2.98692 21213 ft 391 kts 156°
2026-04-26 18:01 54.22418 -2.96508 20746 ft 388 kts 152°
2026-04-26 18:01 54.20151 -2.94109 20602 ft 375 kts 149°
2026-04-26 18:01 54.18008 -2.91704 20453 ft 363 kts 148°
2026-04-26 18:01 54.15964 -2.89362 20226 ft 355 kts 148°
2026-04-26 18:02 54.13932 -2.87031 19788 ft 353 kts 148°
2026-04-26 18:02 54.12580 -2.85490 19482 ft 352 kts 148°
2026-04-26 18:02 54.09873 -2.82424 18916 ft 348 kts 148°
2026-04-26 18:02 54.07878 -2.80178 18472 ft 346 kts 148°
2026-04-26 18:03 54.05887 -2.77944 18025 ft 344 kts 148°
2026-04-26 18:03 54.03898 -2.75720 17663 ft 340 kts 148°
2026-04-26 18:03 54.01944 -2.73541 17209 ft 339 kts 148°
2026-04-26 18:03 53.99990 -2.71365 16785 ft 337 kts 148°
2026-04-26 18:04 53.98058 -2.69217 16207 ft 334 kts 148°
2026-04-26 18:04 53.96147 -2.67094 15775 ft 323 kts 148°
2026-04-26 18:04 53.94289 -2.65031 15225 ft 317 kts 148°
2026-04-26 18:05 53.90648 -2.61002 13982 ft 311 kts 148°
2026-04-26 18:05 53.88854 -2.59021 13398 ft 308 kts 148°
2026-04-26 18:05 53.87088 -2.57072 12814 ft 304 kts 149°
2026-04-26 18:05 53.85325 -2.55128 12215 ft 301 kts 149°
2026-04-26 18:06 53.83583 -2.53208 11627 ft 299 kts 149°
2026-04-26 18:06 53.81861 -2.51314 11056 ft 295 kts 149°
2026-04-26 18:06 53.80133 -2.49415 10457 ft 292 kts 149°
2026-04-26 18:06 53.78461 -2.47577 9883 ft 290 kts 149°
2026-04-26 18:07 53.76791 -2.45743 9321 ft 287 kts 149°
2026-04-26 18:07 53.75156 -2.43862 8736 ft 286 kts 142°
2026-04-26 18:07 53.73748 -2.41490 8161 ft 285 kts 131°
2026-04-26 18:07 53.72910 -2.39768 7926 ft 282 kts 130°
2026-04-26 18:08 53.71287 -2.36315 7405 ft 282 kts 129°
2026-04-26 18:08 53.70065 -2.33730 7032 ft 282 kts 130°
2026-04-26 18:08 53.68853 -2.31190 6707 ft 280 kts 130°
2026-04-26 18:08 53.67629 -2.28627 6449 ft 276 kts 130°
2026-04-26 18:09 53.66437 -2.26139 6194 ft 276 kts 130°
2026-04-26 18:09 53.65221 -2.23608 5939 ft 275 kts 130°
2026-04-26 18:09 53.64024 -2.21123 5686 ft 273 kts 130°
2026-04-26 18:09 53.62836 -2.18653 5433 ft 272 kts 130°
2026-04-26 18:10 53.61661 -2.16207 5187 ft 271 kts 130°
2026-04-26 18:10 53.60481 -2.13760 4938 ft 269 kts 130°
2026-04-26 18:10 53.59305 -2.11330 4692 ft 267 kts 130°
2026-04-26 18:10 53.58133 -2.08907 4438 ft 266 kts 130°
2026-04-26 18:11 53.56965 -2.06540 4187 ft 264 kts 134°
2026-04-26 18:11 53.55545 -2.04638 3937 ft 261 kts 153°
2026-04-26 18:11 53.53843 -2.03692 3694 ft 259 kts 172°
2026-04-26 18:11 53.52056 -2.03351 3490 ft 254 kts 175°
2026-04-26 18:12 53.50339 -2.03040 3471 ft 240 kts 174°
2026-04-26 18:12 53.48729 -2.02791 3468 ft 227 kts 182°
2026-04-26 18:12 53.47207 -2.03279 3470 ft 222 kts 206°
2026-04-26 18:12 53.46020 -2.04882 3450 ft 224 kts 232°
2026-04-26 18:13 53.45173 -2.07075 3133 ft 226 kts 236°
2026-04-26 18:13 53.44278 -2.09141 2792 ft 209 kts 230°
2026-04-26 18:13 53.43378 -2.10911 2522 ft 189 kts 229°
2026-04-26 18:13 53.42851 -2.11973 2374 ft 174 kts 231°
2026-04-26 18:14 53.41906 -2.13963 2024 ft 153 kts 231°
2026-04-26 18:14 53.41260 -2.15299 1843 ft 144 kts 231°
2026-04-26 18:14 53.40632 -2.16603 1657 ft 145 kts 230°
2026-04-26 18:14 53.39993 -2.17934 1456 ft 145 kts 230°
2026-04-26 18:15 53.39357 -2.19251 1262 ft 145 kts 230°
2026-04-26 18:15 53.38734 -2.20543 1066 ft 144 kts 230°
2026-04-26 18:15 53.38102 -2.21845 876 ft 144 kts 230°
2026-04-26 18:15 53.37466 -2.23142 685 ft 144 kts 230°
2026-04-26 18:16 53.36847 -2.24443 498 ft 144 kts 233°
2026-04-26 18:16 53.35625 -2.26968 231 ft 115 kts 231°
2026-04-26 18:16 53.35235 -2.27797 232 ft 70 kts 231°
2026-04-26 18:17 53.34996 -2.28283 231 ft 48 kts 247°
2026-04-26 18:17 53.34945 -2.28697 231 ft 22 kts 274°
2026-04-26 18:17 53.35032 -2.28716 231 ft 21 kts 50°
2026-04-26 18:17 53.35144 -2.28478 231 ft 24 kts 52°
2026-04-26 18:18 53.35238 -2.28292 231 ft 25 kts 46°
2026-04-26 18:18 53.35418 -2.28159 231 ft 22 kts
2026-04-26 18:18 53.35528 -2.28085 231 ft 16 kts 42°
2026-04-26 18:18 53.35601 -2.27956 231 ft 2 kts 50°
2026-04-26 18:19 53.35604 -2.27950 231 ft 3 kts 50°
2026-04-26 18:19 53.35640 -2.27902 231 ft 10 kts 20°
2026-04-26 18:19 53.35739 -2.27872 231 ft 16 kts
2026-04-26 18:19 53.35854 -2.27859 231 ft 16 kts
2026-04-26 18:20 53.35964 -2.27859 231 ft 15 kts 328°
2026-04-26 18:20 53.36041 -2.27988 231 ft 15 kts 311°
2026-04-26 18:20 53.36118 -2.28112 231 ft 15 kts 317°
2026-04-26 18:20 53.36169 -2.28192 231 ft 15 kts 317°
2026-04-26 18:21 53.36269 -2.28352 231 ft 14 kts 315°
2026-04-26 18:21 53.36342 -2.28474 231 ft 14 kts 315°
2026-04-26 18:21 53.36427 -2.28543 231 ft 13 kts
2026-04-26 18:21 53.36509 -2.28597 231 ft 13 kts 315°
2026-04-26 18:22 53.36572 -2.28707 231 ft 13 kts 305°
2026-04-26 18:22 53.36609 -2.28842 231 ft 12 kts 291°
2026-04-26 18:22 53.36664 -2.28947 231 ft 12 kts 325°
2026-04-26 18:22 53.36733 -2.29028 231 ft 11 kts 327°
2026-04-26 18:23 53.36807 -2.29016 231 ft 11 kts 28°
2026-04-26 18:23 53.36872 -2.28942 231 ft 11 kts 47°
2026-04-26 18:23 53.36922 -2.28843 231 ft 11 kts 45°
2026-04-26 18:23 53.36928 -2.28759 231 ft 2 kts 135°
2026-04-26 18:24 53.36927 -2.28758 231 ft 0 kts 135°
2026-04-26 18:24 53.36920 -2.28747 231 ft 1 kts 136°